Location: Andiroba
(19.8650°S, 43.9258°W)
Time: 01:38:22
(UTC+00:00)

ATLAS 5 CENTAUR R/B - Pass Details

Date: 15 June 2024
Orbit: 246 x 13396 km, 60.8° (Epoch: 23 July)

Event Time Altitude Azimuth Distance (km) Brightness Sun altitude
Exits shadow 06:35:30 46° 162° (SSE) 2,177 4.6 -39.2°
Maximum altitude 06:38:22 59° 111° (ESE) 2,452 5.0 -38.6°
Drops below altitude 10° 07:10:17 10° 33° (NNE) 11,639 9.0 -31.3°
Sets 07:27:16 0° 30° (NNE) 15,186 9.7 -27.5°
